Regional Weather Roundup
Issued by NWS Cleveland, OH

Home | Current Version | Previous Version | Graphics & Text | Print | Product List | Glossary On
Versions: 1 2 3 4 5 6 7 8 9 10 11 12 13 14 15 16 17 18 19 20 21 22 23 24 25 26 27 28 29 30 31 32 33 34 35 36 37 38 39 40 41 42 43 44 45 46 47 48 49 50
000
ASUS41 KCLE 081200
RWRCLE
OHIO REGIONAL WEATHER ROUNDUP
NATIONAL WEATHER SERVICE WILMINGTON, OH
700 AM EST THU DEC 08 2016

NOTE: "FAIR" INDICATES FEW OR NO CLOUDS BELOW 12,000 FEET WITH NO
SIGNIFICANT WEATHER AND/OR OBSTRUCTIONS TO VISIBILITY.

OHZ001>008-015>018-024>027-034-035-043-044-081300-
   NORTHWEST OHIO

CITY           SKY/WX    TMP DP  RH WIND       PRES   REMARKS
DEFIANCE       CLOUDY    26  15  63 W13G22    30.12R WCI  15
FINDLAY        FLURRIES  25  14  63 W22G32    30.12R WCI  10
TOLEDO EXPRESS CLOUDY    25  18  74 W20       30.08R WCI  11
TOLEDO EXEC    CLOUDY    27  18  69 W17       30.09R WCI  14
LIMA           CLOUDY    24  18  77 W18       30.13R WCI  10
$$

OHZ009>014-019>023-028>033-038-089-081300-
   NORTHEAST OHIO

CITY           SKY/WX    TMP DP  RH WIND       PRES   REMARKS
CLE-HOPKINS    CLOUDY    29  18  63 W18       30.08R WCI  16
CLE-LAKEFRONT  CLOUDY    29  19  66 SW17      30.05R WCI  17
CUY CO. ARPT   CLOUDY    28  21  74 W21       30.04  WCI  15
LORAIN-ELYRIA  CLOUDY    26  17  68 W18G25    30.08R WCI  13
ASHTABULA      CLOUDY    29  20  69 SW12      30.01R WCI  19
AKRON-CANTON   MOCLDY    28  19  69 W12G23    30.03S WCI  18
WOOSTER        NOT AVBL
MANSFIELD      CLOUDY    24  17  74 W9G18     30.06R WCI  14
YOUNGSTOWN     CLOUDY    28  19  69 W10       30.01R WCI  19
$$

OHZ042-051>053-060>062-070>072-077>081-081300-
  SOUTHWEST OHIO

CITY           SKY/WX    TMP DP  RH WIND       PRES   REMARKS
CINC-COVINGTON FAIR      26  16  65 W13       30.22R WCI  15
CINC-LUNKEN    FAIR      28  20  71 W14       30.25R WCI  17
HAMILTON       CLOUDY    28  19  69 W8        30.23R WCI  20
DAYTON         NOT AVBL
WRIGHT-PAT AFB NOT AVBL
DAYTON GENERAL CLOUDY    25  15  66 W14       30.18R WCI  13
WILMINGTON     MOCLDY    26  19  74 W15       30.17R WCI  14
$$

OHZ036-037-039>041-045>050-054>059-063>069-073>076-082>088-081300-
  CENTRAL AND SOUTHEAST OHIO

CITY           SKY/WX    TMP DP  RH WIND       PRES   REMARKS
COLUMBUS       CLOUDY    27  19  72 W17G25    30.14R WCI  14
OSU AIRPORT    CLOUDY    26  18  71 W14       30.14R WCI  14
BOLTON FIELD   NOT AVBL
RICKENBACK AFB NOT AVBL
NEWARK         MOCLDY    29  20  69 W17G24    30.11R WCI  17
MARION         CLOUDY    25  17  72 W13G20    30.12R WCI  14
LANCASTER      CLOUDY    29  21  72 W8        30.15R WCI  21
ZANESVILLE     CLOUDY    31  23  72 W6        30.10R WCI  25
NEW PHILLY     CLOUDY    30  23  75 W6        30.08R WCI  24
$$




USA.gov is the U.S. government's official web portal to all federal, state and local government web resources and services.